Erie, PA

10:52 PM EST on December 11, 2019 (GMT -0500)
Erie International

Weather History for KERI - October, 2019

Change the Weather History Date:

Saturday, October 19, 2019

  Actual Average Record
Temperature  
Mean Temperature 50 °F 52 °F  
Max Temperature 62 °F 60 °F 81 °F (1963)
Min Temperature 37 °F 44 °F 26 °F (1972)
Degree Days  
Heating Degree Days 16 13  
Month to date heating degree days 151 200  
Since 1 July heating degree days 163 324  
Cooling Degree Days 0 0  
Month to date cooling degree days 22 7  
Year to date cooling degree days 847 636  
Moisture  
Dew Point 39 °F    
Average Humidity 72    
Maximum Humidity 86    
Minimum Humidity 46    
Precipitation  
Precipitation 0.00 in 0.12 in 1.29 in (1985)
Month to date precipitation 1.41 2.60  
Year to date precipitation 31.04 33.04  
Snow  
Snow 0.00 in 0.00 in - ()
Month to date snowfall 0.0 0.0  
Since 1 July snowfall 0.0 0.0  
Since 1 September snowfall 0.0 0.0  
Snow Depth 0.00 in    
Sea Level Pressure  
Sea Level Pressure 30.00 in    
Wind  
Wind Speed 5 mph ()    
Max Wind Speed 15 mph    
Max Gust Speed 22 mph    
Visibility 10.0 miles    
Events      
T = Trace of Precipitation, MM = Missing Value Source: Averaged Metar Reports

Daily Weather History Graph

Daily Weather History Graph

Search for Another Location

Airport or City:

Astronomy

Oct. 19, 2019 Rise Set
Actual Time 7:37 AM EDT 6:33 PM EDT
Civil Twilight 7:09 AM EDT 7:01 PM EDT
Nautical Twilight 6:36 AM EDT 7:33 PM EDT
Astronomical Twilight 6:04 AM EDT 8:06 PM EDT
Moon 10:36 PM EDT (10/19) 1:12 PM EDT (10/19)
Length of Visible Light 11h 52m
Length of Day
10h 55m
Waning Gibbous, 70% of the Moon is Illuminated
Oct 19
Waning Gibbous
Oct 21
Last Quarter
Oct 27
New
Nov 4
First Quarter
Nov 12
Full

Hourly Weather History & Observations

Time (EDT) Temp. Windchill Dew Point Humidity Pressure Visibility Wind Dir Wind Speed Gust Speed Precip Events Conditions
12:51 AM 39.0 °F 35.7 °F 35.1 °F 86% 30.06 in 10.0 mi South 4.6 mph - N/A   Clear
1:51 AM 39.0 °F 35.7 °F 35.1 °F 86% 30.06 in 10.0 mi South 4.6 mph - N/A   Clear
2:51 AM 37.9 °F 34.4 °F 34.0 °F 86% 30.06 in 10.0 mi South 4.6 mph - N/A   Clear
3:51 AM 37.9 °F 35.5 °F 34.0 °F 86% 30.07 in 10.0 mi South 3.5 mph - N/A   Clear
4:51 AM 37.9 °F - 34.0 °F 86% 30.07 in 10.0 mi Calm Calm - N/A   Clear
5:51 AM 37.9 °F 32.7 °F 34.0 °F 86% 30.07 in 10.0 mi South 6.9 mph - N/A   Clear
6:51 AM 37.9 °F 35.5 °F 34.0 °F 86% 30.07 in 10.0 mi South 3.5 mph - N/A   Clear
7:51 AM 37.9 °F 35.5 °F 34.0 °F 86% 30.07 in 10.0 mi South 3.5 mph - N/A   Clear
8:51 AM 42.1 °F 36.6 °F 36.0 °F 79% 30.08 in 10.0 mi SSE 9.2 mph - N/A   Clear
9:51 AM 48.0 °F - 37.9 °F 68% 30.08 in 10.0 mi SSE 11.5 mph - N/A   Clear
10:51 AM 53.1 °F - 39.9 °F 61% 30.06 in 10.0 mi SSE 8.1 mph - N/A   Clear
11:51 AM 55.9 °F - 37.9 °F 51% 30.05 in 10.0 mi SSE 10.4 mph - N/A   Clear
12:51 PM 57.9 °F - 39.0 °F 49% 30.02 in 10.0 mi ESE 5.8 mph - N/A   Clear
1:51 PM 60.1 °F - 39.0 °F 46% 30.00 in 10.0 mi South 5.8 mph - N/A   Clear
2:51 PM 59.0 °F - 42.1 °F 53% 29.97 in 10.0 mi NNE 10.4 mph - N/A   Clear
3:51 PM 55.9 °F - 43.0 °F 62% 29.96 in 10.0 mi NE 11.5 mph - N/A   Clear
4:51 PM 55.9 °F - 44.1 °F 64% 29.94 in 10.0 mi NE 10.4 mph - N/A   Clear
5:51 PM 55.0 °F - 45.0 °F 69% 29.94 in 10.0 mi ENE 6.9 mph - N/A   Clear
6:51 PM 53.1 °F - 45.0 °F 74% 29.93 in 10.0 mi Calm Calm - N/A   Clear
7:51 PM 48.9 °F - 44.1 °F 83% 29.91 in 10.0 mi Calm Calm - N/A   Clear
8:51 PM 48.0 °F - 43.0 °F 83% 29.89 in 10.0 mi Calm Calm - N/A   Clear
9:51 PM 46.9 °F - 42.1 °F 83% 29.89 in 10.0 mi Calm Calm - N/A   Clear
10:51 PM 51.1 °F - 39.9 °F 66% 29.88 in 10.0 mi SSE 9.2 mph - N/A   Clear
11:51 PM 53.1 °F - 39.9 °F 61% 29.87 in 10.0 mi SSE 12.7 mph - N/A   Clear